Location: Brodeslavy
(49.9527°N, 13.5567°E)
Time: 20:35:13
(UTC+00:00)

Okean O Rocket - Pass Details

Date: 17 June 2025
Orbit: 615 x 635 km, 98.0° (Epoch: 16 July)

Event Time Altitude Azimuth Distance (km) Brightness Sun altitude
Rises 21:05:33 0° 221° (SW) 2,878 4.8 -11.9°
Reaches altitude 10° 21:09:32 10° 259° (WSW) 1,980 4.4 -12.2°
Maximum altitude 21:10:39 11° 274° (W) 1,926 4.5 -12.2°
Drops below altitude 10° 21:11:46 10° 289° (WNW) 1,985 4.8 -12.3°
Sets 21:15:47 0° 327° (NNW) 2,901 7.0 -12.6°
